Regional Weather Roundup
Issued by NWS

Home | Current Version | Previous Version | Text Only | Print | Product List | Glossary On
Versions: 1 2 3 4 5 6 7 8 9 10 11 12 13 14 15 16 17 18 19 20 21 22 23 24 25 26 27 28 29 30 31 32 33 34 35 36 37 38 39 40 41 42 43 44 45 46 47 48 49 50
000
ASUS42 KFFC 301010
RWRGA
WEATHER ROUNDUP FOR GEORGIA
NATIONAL WEATHER SERVICE PEACHTREE CITY GA
600 AM EDT THU MAR 30 2017

NOTE: "FAIR" INDICATES FEW OR NO CLOUDS BELOW 12,000 FEET WITH NO
SIGNIFICANT WEATHER AND/OR OBSTRUCTIONS TO VISIBILITY.

* = USE WITH CAUTION. THE STATIONS MARKED WITH AN ASTERISK MAY NOT
REPORT WEATHER SUCH AS PRECIPITATION, FOG, OR THUNDER AND ARE NOT
QUALITY CONTROLLED BY NWS.

THE REMARK "TC" DENOTES TEMPERATURE READING IN DEGREES CELSIUS.

GAZ001>058-301100-
NORTH GEORGIA

CITY           SKY/WX    TMP DP  RH WIND       PRES   REMARKS
ATLANTA        MOCLDY    64  57  78 SW5       29.96S
ATHENS         CLEAR     61  56  83 SE6       29.98R
CHAMBLEE       CLEAR     63  57  81 CALM      29.97R
PEACHTREE CITY PTCLDY    56  56 100 CALM      29.97S FOG
ROME           MOCLDY    62  57  83 CALM      29.92F
WEST ATLANTA   PTCLDY    60  57  89 CALM      29.96S
GAINESVILLE    CLEAR     62  53  72 E7        30.00S
CARTERSVILLE   CLOUDY    62  58  86 SE3       29.95S


CITY           SKY/WX    TMP DP  RH WIND       PRES   REMARKS
DALTON*        CLOUDY    61  57  88 CALM      29.93S
MARIETTA       PTCLDY    64  57  78 S3        29.96S
CANTON*        CLOUDY    63  50  63 E3        29.98S
$$

GAZ059>098-102>109-301100-
CENTRAL GEORGIA

CITY           SKY/WX    TMP DP  RH WIND       PRES   REMARKS
AUGUSTA-BUSH   MOCLDY    63  61  93 E3        30.01R
AUGUSTA-DANIEL PTCLDY    65  60  84 E6        30.02S
COLUMBUS       PTCLDY    61  55  81 E3        29.95S
MACON          CLEAR     58  57  97 CALM      29.96F
ROBINS AFB     CLEAR     61  59  94 CALM      29.96S


CITY           SKY/WX    TMP DP  RH WIND       PRES   REMARKS
LAGRANGE*      PTCLDY    57  57 100 CALM      29.95F
SYLVANIA*      CLOUDY   N/A N/A N/A SE5       30.02S FOG
MILLEDGEVILLE* PTCLDY    64  63  94 CALM      29.98R
$$

GAZ099>101-110>166-301100-
SOUTH GEORGIA

CITY           SKY/WX    TMP DP  RH WIND       PRES   REMARKS
SAVANNAH       CLOUDY    67  65  93 E9        30.01S FOG
VALDOSTA       CLEAR     56  54  93 CALM      29.97S
ALMA           MOCLDY    66  63  90 SE3       29.97S
ST SIMONS      CLOUDY    70  63  78 SE3       29.98S
FT STEWART     PTCLDY    64  62  92 E5        29.97F
ALBANY         CLEAR     58  55  90 CALM      29.97S FOG
HUNTER AFB     CLOUDY    66  66 100 E5        29.99S FOG
MOODY AFB      CLEAR     59  54  82 CALM      29.96R
BRUNSWICK      CLOUDY    68  68 100 E5        30.00R


CITY           SKY/WX    TMP DP  RH WIND       PRES   REMARKS
BAINBRIDGE*    CLEAR     59  55  88 CALM      29.94F
MOULTRIE*      CLEAR     59  55  88 CALM      29.96S
VIDALIA*       CLEAR     64  61  88 CALM      29.99R
WAYCROSS*      CLOUDY    68  68 100 CALM      29.97S
DOUGLAS*       PTCLDY    61  59  94 CALM      29.99R FOG
$$




USA.gov is the U.S. government's official web portal to all federal, state and local government web resources and services.